Temperature
19 17 17 17 17 18 18 18 18 18 19 18 17 17 17 17 17 17 17 17 18 18 18 18 18 18 18 17 17 17 17 17 17 17 17 16 16 16 16 16 16 16 15 15
17 17 18 19 18 18 18 18 18 18 19 18 17 17 17 16 16 17 17 17 17 18 18 18 18 17 17 17 17 17 17 17 17 17 16 16 16 16 16 16 16 15 15 15
18 18 19 19 19 18 18 18 18 18 18 18 18 17 17 17 17 17 17 17 18 18 18 18 18 17 17 17 17 17 17 17 17 17 16 16 16 16 16 16 15 15 15 15
18 18 19 19 19 18 18 19 19 18 17 16 17 16 16 16 16 16 17 17 17 18 18 18 18 17 17 17 17 17 17 17 17 17 16 16 16 16 16 16 15 15 15 15
18 18 18 19 19 19 18 19 18 18 17 16 16 16 16 16 16 16 16 17 18 18 18 18 18 18 18 17 17 17 17 17 16 16 16 16 16 16 16 15 15 15 15 15
18 18 18 19 19 19 18 17 17 15 15 16 16 16 16 15 16 16 17 18 18 18 18 18 18 18 18 17 17 17 17 16 16 16 16 16 16 16 15 15 15 15 15 15
18 18 19 19 18 18 17 16 16 16 15 15 16 16 16 17 16 17 17 18 18 18 18 18 18 18 17 17 17 17 17 17 16 16 16 16 16 15 15 15 15 15 15 15
17 17 18 18 18 18 17 16 16 16 16 15 16 16 16 17 17 18 18 18 18 18 18 18 18 18 18 17 17 17 17 17 16 16 16 16 16 15 15 15 15 15 15 15
16 16 18 19 19 18 17 16 16 15 16 16 16 16 17 18 17 17 17 17 18 18 18 18 18 18 18 18 17 17 17 17 16 16 16 16 15 15 15 15 15 15 15 14
16 16 18 18 18 18 17 16 14 15 15 15 16 16 16 18 17 16 16 17 17 18 18 18 18 18 18 18 17 17 17 17 16 16 16 16 15 15 15 15 15 15 15 14
16 16 17 17 18 17 17 16 15 14 14 15 15 16 17 16 17 16 16 17 18 18 18 18 18 18 18 17 17 17 17 16 16 16 16 16 15 15 15 15 15 15 15 14
15 14 15 16 17 17 17 16 15 15 15 14 14 15 17 16 16 16 17 17 18 18 18 17 17 17 17 17 17 17 17 16 16 16 16 16 15 15 15 15 15 15 15 14
15 14 15 16 16 16 17 16 15 14 13 13 14 16 16 16 16 16 17 17 18 18 17 17 17 17 17 17 17 17 17 16 16 16 16 16 15 15 15 15 15 14 14 14
15 14 14 15 16 16 16 16 15 15 14 13 14 15 16 16 16 16 17 17 17 17 17 17 17 17 17 17 17 17 17 16 16 16 16 15 15 15 15 14 14 14 14 14
14 14 14 15 16 16 16 16 15 15 14 14 15 15 16 15 15 16 17 17 17 17 17 17 17 17 17 17 17 17 17 16 16 16 15 15 15 15 14 14 14 14 14 14
12 14 14 15 15 16 16 16 16 16 15 15 15 15 15 16 16 16 16 16 16 16 16 17 17 17 17 17 17 17 16 16 16 15 15 15 15 15 14 14 14 14 14 14
12 13 13 13 14 15 15 16 16 15 15 15 15 15 15 14 14 15 15 16 16 16 16 16 16 17 17 17 17 17 16 16 16 15 15 15 15 14 14 14 14 14 14 13
12 12 11 12 14 14 15 15 15 15 15 14 15 14 14 15 15 16 16 16 16 16 16 16 16 16 16 16 16 16 16 16 15 15 15 15 15 14 14 14 14 13 13 13
11 11 11 11 13 13 14 15 15 15 14 14 14 14 14 14 15 15 16 16 16 16 16 16 16 16 16 16 16 16 16 15 15 15 15 15 14 14 14 14 13 13 13 13
11 11 11 11 13 13 14 15 15 15 14 14 14 14 13 13 12 14 16 15 15 15 16 16 16 16 16 16 16 16 16 15 15 15 15 15 14 14 14 13 13 13 13 13
11 10 10 11 12 12 13 14 15 14 13 14 15 14 14 13 14 15 15 15 15 15 15 15 16 16 16 16 16 16 15 15 15 15 15 14 14 14 13 13 13 13 13 13
11 10 10 10 11 12 13 13 13 13 15 15 15 15 15 15 15 15 15 15 15 15 15 15 15 15 15 15 15 15 15 15 15 15 14 14 14 13 13 13 13 13 13 12
10 10 10 10 12 12 13 14 14 15 15 15 15 15 15 14 14 15 15 15 15 15 15 15 15 15 15 15 15 15 15 15 14 14 14 14 14 13 13 13 13 12 12 12
9 10 9 10 11 12 13 14 14 14 14 15 15 15 14 14 14 14 14 14 14 15 15 15 15 15 15 15 15 15 14 14 14 14 14 13 13 13 13 13 12 12 12 12
9 9 9 9 10 12 13 14 14 14 14 14 14 14 14 14 14 14 14 14 14 14 14 14 14 14 14 14 14 14 14 14 14 13 13 13 13 13 12 12 12 12 12 12
8 9 9 10 11 11 12 13 14 14 14 14 14 14 14 14 14 14 13 14 14 14 14 14 14 14 14 14 14 13 13 13 13 13 13 13 13 12 12 12 12 12 11 11
Wind_Speed
3 4 2 5 5 3 3 3 2 3 2 3 4 5 4 3 3 4 4 5 5 6 5 3 4 5 5 5 5 5 5 4 4 3 3 3 1 1 2 3 5 5 5 5
4 1 5 3 3 3 3 2 1 2 1 2 2 4 4 4 5 5 6 6 6 5 3 3 4 4 5 5 5 5 5 5 5 3 3 2 2 1 1 2 4 5 5 5
4 3 2 3 3 3 2 3 3 2 2 2 1 4 4 3 3 3 4 5 5 7 7 6 5 5 5 6 6 5 5 5 5 5 4 3 3 3 2 2 2 3 4 5
2 3 1 2 2 3 2 3 4 2 2 2 0 3 6 4 4 5 6 6 7 7 7 6 6 6 6 6 5 5 4 4 4 5 5 5 4 2 1 0 0 2 4 4
3 1 1 2 3 4 4 1 2 2 2 1 0 1 6 2 5 7 8 8 8 7 8 8 8 8 6 6 6 5 5 3 3 4 5 5 4 3 2 1 2 2 3 3
3 1 2 3 1 3 3 5 5 4 3 2 4 4 6 4 7 6 7 8 8 7 7 7 6 6 5 5 5 5 5 4 3 4 4 5 5 5 4 3 2 1 1 2
3 3 1 1 2 3 4 5 3 3 2 5 2 3 7 6 7 7 8 8 8 7 7 7 7 7 7 7 6 6 6 5 4 5 5 5 5 5 5 4 3 2 1 0
2 4 3 2 4 4 3 6 5 4 4 4 1 4 6 5 4 3 4 5 4 5 6 7 9 8 8 8 7 7 7 6 5 5 5 4 5 4 3 3 3 3 2 2
5 5 3 2 2 6 4 3 4 4 1 1 4 6 7 2 2 2 1 2 3 5 6 7 7 8 8 8 8 8 8 6 6 6 5 4 4 4 4 4 3 2 2 2
6 3 3 2 3 2 5 7 4 4 2 2 5 4 4 4 3 1 1 2 3 3 3 5 5 7 7 8 7 7 7 7 6 6 5 4 4 4 4 4 4 4 3 3
4 3 3 1 3 4 3 3 4 3 4 4 3 6 4 5 4 4 3 3 3 3 4 4 4 5 5 5 6 6 6 6 5 6 5 5 4 4 3 3 4 4 3 3
3 4 2 5 4 3 4 5 6 4 3 3 3 6 5 3 3 3 3 2 2 2 2 3 4 4 5 5 6 6 6 6 6 6 5 5 5 4 4 4 3 3 3 3
4 4 1 4 3 1 1 3 3 4 4 4 4 6 4 3 1 1 2 2 1 1 1 2 3 4 5 6 6 6 6 6 6 6 6 5 5 5 5 4 3 3 3 3
4 3 5 7 5 3 3 3 4 5 4 4 7 7 6 5 3 3 2 2 1 2 2 3 4 4 5 5 6 6 6 6 6 6 6 6 6 6 5 5 4 4 4 4
4 3 4 5 4 3 4 5 6 6 7 7 7 7 7 6 4 4 2 1 1 1 2 3 4 4 4 5 5 6 6 6 6 7 6 6 6 5 5 5 4 4 4 4
2 2 1 3 3 3 5 7 7 7 6 6 6 7 5 4 2 2 2 1 1 2 3 3 4 4 5 6 6 6 6 6 7 7 7 6 6 5 5 5 5 4 4 4
1 3 2 3 4 1 6 7 7 5 4 6 7 7 3 2 3 4 4 3 3 3 3 3 4 5 6 7 7 7 7 6 7 7 6 6 6 6 6 5 5 5 4 4
4 4 3 1 1 6 7 3 5 5 3 3 3 3 3 4 4 3 3 3 2 3 3 4 4 4 5 5 5 5 5 6 6 6 6 6 6 6 5 5 5 5 4 4
6 6 3 3 3 7 6 2 3 4 4 2 3 3 2 1 2 2 1 1 3 4 4 4 4 4 3 4 5 6 6 6 6 6 6 7 7 7 6 6 6 5 4 4
3 4 4 3 3 6 6 3 2 3 3 3 3 3 1 2 0 5 4 2 3 3 2 3 2 1 2 4 6 7 6 7 7 8 7 7 7 8 8 8 6 4 4 5
3 2 4 5 5 7 6 4 2 4 6 3 4 4 4 4 6 5 4 3 3 3 3 2 1 2 3 4 6 7 6 7 7 6 6 6 6 7 7 6 5 5 5 4
5 4 5 5 5 7 3 2 4 5 3 3 3 4 5 5 4 4 4 4 4 3 2 2 2 2 2 3 6 7 7 6 4 5 5 6 6 6 5 6 5 5 6 5
5 6 5 7 7 4 2 4 4 2 3 3 3 4 4 3 4 5 5 5 4 3 3 2 2 2 2 3 6 7 6 4 5 5 5 5 5 5 5 6 6 5 5 5
3 1 3 4 5 5 4 4 4 4 4 4 3 4 3 4 5 5 5 5 4 3 3 2 2 2 2 3 4 5 5 5 6 5 4 4 5 4 4 5 6 6 6 6
5 3 2 4 6 5 5 5 4 4 4 4 3 4 4 4 5 5 4 5 5 3 2 3 3 3 3 3 3 3 5 6 6 5 4 4 4 5 5 4 4 6 7 8
5 6 6 7 6 4 6 6 5 4 5 5 4 4 4 4 5 4 4 4 4 3 3 3 3 3 3 3 3 3 5 7 7 5 4 4 4 4 4 4 2 4 5 7
Wind_Direction
55 81 185 210 194 180 158 165 211 250 233 164 209 243 256 211 210 228 225 219 219 227 228 196 178 159 148 145 145 152 153 148 132 116 115 108 94 50 47 57 64 73 88 104
51 283 241 199 168 146 156 177 246 307 4 169 233 267 264 215 211 218 217 214 210 211 203 193 177 167 167 167 164 161 164 160 159 152 141 132 123 96 63 49 54 60 77 92
175 253 209 144 152 155 192 188 209 229 11 35 33 317 289 262 232 228 221 213 206 200 200 196 181 183 175 176 177 175 173 166 165 150 120 93 71 53 40 31 22 30 71 89
246 274 170 141 180 154 232 218 183 166 108 299 131 290 287 265 265 246 235 218 214 212 199 189 186 187 189 190 179 170 167 161 154 150 151 148 141 148 184 156 38 35 63 84
256 238 167 194 219 170 204 149 133 148 143 329 315 221 286 282 257 251 237 224 218 209 197 193 194 194 191 180 172 168 158 155 148 152 160 152 146 154 137 101 79 46 40 64
250 254 194 205 198 153 129 71 55 53 76 286 232 194 279 243 230 243 233 225 219 208 199 198 192 179 177 169 165 164 164 167 161 159 158 159 159 154 145 144 131 86 44 39
328 315 284 154 91 52 92 96 40 1 354 258 239 196 252 252 231 224 226 224 216 201 192 189 184 181 181 178 178 174 173 176 172 169 169 168 166 161 164 166 168 163 140 78
193 285 252 199 174 168 160 143 161 200 228 278 294 238 258 271 275 243 221 212 197 188 193 196 194 190 187 185 182 179 181 180 174 174 179 173 164 159 168 173 173 177 178 179
180 250 284 227 184 144 138 166 168 146 184 278 283 287 302 318 5 26 75 160 198 201 197 197 194 188 187 186 187 184 180 178 177 177 172 171 171 170 176 174 167 168 170 160
160 225 287 290 81 53 144 144 108 126 162 258 296 282 266 285 288 298 274 238 235 216 201 196 192 193 192 189 184 180 179 182 180 175 178 178 178 177 175 167 170 173 171 147
140 168 307 25 172 181 122 124 126 134 158 165 262 274 237 238 234 224 239 247 238 222 204 197 195 189 182 174 172 177 179 176 176 178 174 166 168 166 166 170 175 174 162 152
136 133 236 260 261 208 174 167 152 162 215 183 202 265 287 258 237 216 229 249 235 210 203 193 188 173 171 175 178 182 183 182 186 180 167 168 163 159 165 170 166 158 158 160
136 123 79 339 341 8 163 167 158 141 142 175 203 264 318 341 317 250 220 252 263 213 199 186 180 180 185 187 188 188 188 189 182 169 165 166 166 169 174 171 159 154 156 152
125 135 178 205 226 216 232 208 175 152 171 209 228 253 297 308 301 297 273 251 237 216 205 200 198 198 196 194 193 189 192 189 179 168 167 177 182 180 178 170 163 163 162 156
116 174 218 238 245 215 230 227 201 199 198 203 233 238 259 265 254 259 253 261 264 260 227 213 210 211 201 196 196 192 190 186 178 169 176 189 185 175 167 163 165 163 162 164
88 163 199 280 267 234 248 245 223 222 217 222 242 258 259 264 258 255 237 197 238 275 270 246 229 215 207 203 199 193 193 188 175 175 185 182 172 168 170 169 164 158 160 158
137 136 136 260 290 315 257 234 215 211 207 194 222 246 264 273 256 235 222 209 226 255 273 261 242 226 215 207 197 193 193 179 174 179 179 176 172 172 179 174 162 166 169 161
158 133 148 213 57 237 244 231 199 200 225 222 241 250 234 247 257 232 201 199 240 267 265 264 254 242 233 205 191 182 167 167 175 179 181 177 174 177 176 171 177 179 174 172
174 152 143 153 222 270 287 258 181 194 245 231 226 259 277 322 356 287 240 223 248 259 253 252 241 231 219 197 179 163 164 166 173 187 193 188 181 179 178 185 190 188 179 183
120 131 137 155 202 241 256 276 271 151 252 250 202 213 204 92 5 266 282 280 275 284 272 273 260 205 195 198 171 165 175 176 190 198 198 191 183 182 187 194 192 186 182 189
128 131 171 188 223 259 268 282 103 160 243 258 215 207 190 205 226 253 273 267 255 260 254 241 193 202 211 191 169 173 180 197 204 193 183 179 184 189 192 189 184 174 173 168
180 174 189 173 207 250 271 125 170 222 248 237 231 216 216 236 253 258 255 257 257 266 250 200 189 225 222 181 173 177 194 203 181 171 174 181 185 192 189 177 178 172 169 170
200 195 193 197 215 241 234 213 244 236 253 257 240 238 217 239 252 253 256 257 261 261 240 205 191 215 233 198 183 189 200 173 160 165 178 183 182 187 181 179 178 173 175 182
264 196 180 240 260 264 260 271 279 259 252 257 250 241 226 239 252 249 254 258 262 255 233 206 178 192 229 216 201 198 181 161 158 167 178 178 175 177 177 182 182 182 187 192
227 185 203 251 272 289 275 267 272 290 288 277 273 252 234 238 252 250 254 255 252 249 236 203 195 205 222 216 205 187 170 159 159 165 174 178 179 177 179 185 195 197 203 201
213 200 202 232 232 224 259 270 272 273 272 267 272 281 266 235 245 255 258 257 247 236 230 220 213 206 219 212 205 190 175 166 162 166 172 179 179 180 180 180 200 223 216 214
Height
1517 1522 1526 1525 1524 1525 1528 1532 1534 1531 1526 1528 1531 1531 1529 1528 1529 1529 1530 1531 1532 1533 1535 1536 1538 1540 1541 1543 1544 1546 1547 1548 1550 1551 1552 1552 1553 1553 1554 1554 1554 1555 1555 1555
1522 1525 1520 1519 1521 1524 1527 1532 1533 1530 1526 1528 1531 1531 1528 1527 1527 1527 1528 1528 1529 1531 1533 1535 1536 1538 1540 1542 1544 1545 1546 1548 1549 1550 1551 1552 1553 1554 1554 1554 1555 1555 1555 1556
1523 1521 1517 1519 1522 1526 1528 1531 1531 1532 1529 1528 1531 1534 1529 1525 1525 1526 1526 1526 1528 1529 1531 1533 1535 1537 1539 1541 1542 1544 1546 1547 1548 1550 1551 1552 1553 1554 1554 1555 1555 1555 1555 1556
1521 1518 1518 1520 1523 1524 1530 1524 1526 1529 1535 1540 1536 1546 1532 1526 1525 1523 1523 1524 1525 1527 1529 1531 1533 1535 1537 1539 1541 1543 1545 1546 1548 1549 1550 1551 1552 1553 1554 1554 1555 1555 1556 1556
1521 1518 1519 1521 1521 1521 1525 1522 1525 1529 1535 1541 1539 1545 1537 1527 1526 1522 1520 1520 1522 1524 1526 1528 1531 1533 1535 1538 1540 1542 1544 1545 1547 1548 1550 1551 1551 1552 1553 1554 1554 1555 1555 1556
1518 1517 1517 1518 1518 1519 1521 1526 1530 1535 1540 1549 1540 1544 1540 1530 1523 1518 1516 1517 1519 1521 1524 1526 1529 1532 1534 1537 1539 1541 1542 1544 1546 1547 1548 1550 1551 1552 1552 1553 1554 1554 1555 1555
1522 1518 1516 1516 1520 1521 1524 1536 1548 1550 1555 1551 1538 1540 1535 1518 1515 1513 1513 1514 1516 1518 1521 1524 1527 1529 1531 1534 1537 1539 1541 1542 1544 1546 1547 1549 1550 1551 1552 1552 1553 1554 1554 1555
1530 1530 1518 1516 1518 1523 1526 1532 1548 1555 1555 1549 1539 1540 1526 1513 1511 1510 1511 1512 1514 1516 1519 1521 1524 1526 1529 1532 1534 1537 1539 1541 1543 1545 1546 1548 1549 1550 1551 1552 1552 1553 1554 1555
1530 1529 1516 1514 1514 1518 1526 1532 1532 1543 1545 1548 1543 1533 1520 1511 1510 1510 1511 1511 1513 1515 1517 1519 1521 1524 1527 1529 1532 1535 1537 1539 1541 1543 1545 1547 1548 1549 1550 1551 1552 1553 1553 1554
1521 1527 1518 1515 1515 1517 1520 1526 1537 1543 1551 1554 1544 1537 1530 1516 1513 1512 1511 1511 1512 1513 1515 1517 1520 1522 1525 1527 1530 1533 1536 1538 1540 1542 1544 1545 1547 1548 1549 1550 1551 1552 1553 1553
1517 1526 1523 1519 1519 1522 1524 1527 1532 1540 1543 1550 1551 1540 1516 1514 1511 1511 1511 1511 1511 1513 1514 1516 1518 1520 1523 1525 1528 1531 1534 1536 1538 1540 1542 1544 1545 1547 1548 1549 1550 1551 1552 1552
1518 1526 1530 1523 1516 1515 1517 1522 1529 1540 1543 1544 1547 1538 1511 1510 1509 1509 1509 1510 1511 1512 1513 1515 1517 1519 1521 1523 1526 1529 1531 1534 1536 1538 1540 1542 1543 1545 1546 1547 1548 1549 1550 1551
1517 1525 1534 1530 1526 1520 1519 1520 1523 1529 1538 1544 1545 1533 1510 1509 1508 1508 1509 1509 1510 1512 1513 1514 1515 1517 1519 1521 1523 1526 1529 1531 1534 1536 1538 1540 1541 1543 1544 1545 1547 1548 1549 1549
1514 1523 1529 1532 1527 1521 1521 1520 1522 1527 1537 1539 1533 1525 1515 1511 1509 1508 1508 1509 1510 1511 1512 1513 1514 1515 1517 1519 1521 1523 1526 1529 1531 1533 1535 1537 1539 1541 1542 1543 1545 1546 1547 1548
1513 1522 1521 1519 1516 1516 1516 1516 1518 1521 1523 1528 1523 1521 1514 1511 1510 1508 1508 1508 1509 1510 1510 1511 1512 1513 1515 1517 1518 1521 1523 1526 1528 1530 1533 1535 1537 1538 1540 1541 1543 1544 1545 1546
1515 1520 1520 1520 1516 1515 1515 1513 1514 1515 1516 1517 1516 1515 1510 1509 1509 1508 1508 1508 1508 1509 1509 1510 1510 1512 1513 1514 1516 1518 1520 1522 1525 1527 1529 1532 1534 1535 1537 1539 1540 1542 1543 1544
1518 1520 1525 1526 1519 1516 1519 1510 1510 1511 1510 1512 1514 1511 1507 1507 1507 1507 1506 1506 1507 1507 1508 1508 1509 1510 1511 1512 1513 1515 1517 1520 1522 1524 1527 1529 1531 1533 1534 1536 1538 1539 1540 1541
1517 1521 1527 1528 1524 1528 1512 1503 1503 1506 1507 1507 1507 1506 1505 1505 1504 1505 1504 1505 1505 1505 1506 1506 1506 1507 1508 1510 1511 1513 1515 1517 1519 1521 1524 1526 1528 1530 1531 1533 1535 1536 1537 1539
1512 1518 1526 1530 1528 1520 1508 1501 1502 1505 1506 1504 1504 1504 1504 1504 1503 1503 1502 1503 1503 1503 1504 1504 1504 1504 1505 1507 1508 1510 1512 1514 1516 1518 1520 1522 1525 1526 1528 1530 1531 1533 1534 1536
1511 1514 1523 1528 1526 1524 1508 1499 1498 1501 1507 1501 1501 1502 1503 1503 1506 1502 1500 1500 1501 1501 1501 1501 1501 1501 1502 1504 1505 1507 1509 1511 1513 1515 1517 1519 1521 1523 1525 1526 1528 1530 1531 1533
1515 1518 1522 1525 1524 1515 1503 1498 1498 1510 1507 1499 1499 1499 1500 1501 1501 1499 1499 1499 1499 1499 1499 1499 1499 1499 1500 1501 1503 1504 1506 1507 1510 1512 1514 1516 1518 1519 1521 1523 1525 1526 1528 1529
1513 1517 1520 1521 1522 1515 1499 1498 1502 1501 1497 1496 1496 1496 1497 1497 1497 1496 1496 1496 1496 1496 1496 1496 1496 1496 1497 1499 1500 1501 1502 1505 1507 1509 1511 1513 1514 1516 1518 1519 1521 1522 1524 1525
1508 1507 1508 1509 1507 1499 1497 1496 1496 1496 1495 1494 1494 1494 1494 1494 1494 1493 1493 1493 1493 1493 1493 1493 1493 1494 1495 1496 1497 1498 1500 1502 1504 1505 1507 1509 1511 1512 1514 1516 1517 1518 1520 1521
1503 1501 1503 1503 1498 1495 1494 1494 1494 1494 1493 1492 1491 1491 1491 1491 1490 1490 1490 1490 1490 1490 1490 1490 1491 1491 1492 1493 1494 1496 1498 1499 1501 1502 1504 1505 1507 1508 1510 1512 1513 1514 1515 1517
1500 1500 1501 1500 1495 1493 1491 1491 1491 1491 1490 1489 1488 1488 1488 1488 1487 1487 1487 1487 1487 1487 1487 1488 1488 1488 1489 1490 1491 1493 1495 1497 1498 1499 1501 1502 1503 1505 1506 1507 1509 1510 1512 1513
1495 1496 1498 1495 1491 1492 1490 1489 1489 1488 1487 1485 1485 1484 1484 1484 1484 1484 1483 1483 1484 1484 1485 1485 1485 1486 1487 1488 1489 1490 1492 1493 1495 1496 1498 1499 1500 1501 1502 1503 1505 1506 1508 1509